Погода в Рубцово

Россия / Костромская область     57°48′24″N   42°59′16″E
темп.,
°C
ветер,
м/с
пор.,
м/с
влажн.,
%
обл.,
%
осадки,
мм/ч
давл.,
гПа
погр.,
м
13 мая, чт
чт1300:00+14юв228919 0.0 102326
03:00+14вюв248491 0.0 102371
06:00+15вюв268425 0.0 1022196
09:00+19юв486429 0.0 1022741
12:00+24юв594620 0.0 10202226
15:00+24юв5846100 0.0 10181809
18:00+17юв61281100 1.3 1018718
21:00+15ююв21096100 2.9 1017481
14 мая, пт
пт1400:00+13ююз2499100 0.3 1017126
03:00+11з229585 0.3 101825
06:00+12юз11864 0.0 101981
09:00+18ю2364100 0.0 1019508
12:00+21ю3448100 0.0 10191140
15:00+21ю345352 0.0 10191110
18:00+20ююв256399 0.0 1017476
21:00+15юв22795 0.0 101712
15 мая, сб
сб1500:00+14юв2691100 0.7 1016100
03:00+14в2796100 3.6 1015136
06:00+16юв3996100 0.1 1014296
09:00+20ююв3680100 0.1 1013450
12:00+25ююв475622 0.0 10121237
15:00+25ю58527 0.0 10101320
18:00+18зюз279182 3.1 1011384
21:00+16ююз4149044 3.9 1011528
16 мая, вс
вс1600:00+14ю29975 0.1 1012251
03:00+13ююз279810 0.1 1013166
06:00+15ююз27930 0.0 1013236
09:00+19юз3669100 0.0 1014780
12:00+22юз465397 0.0 10141738
15:00+24юз464627 0.0 10132357
18:00+21ююз2463100 0.0 1012200
21:00+14юз23910 1.1 101440
17 мая, пн
пн1700:00+12юз27953 0.0 1015168
03:00+11зюз269820 0.0 1016135
06:00+13зсз239246 0.0 1017153
09:00+19сз1170100 0.0 1018594
12:00+23с015184 0.0 10181231
15:00+24в1145100 0.0 10171586
18:00+22юв1162100 0.0 101738
21:00+16в227921 0.0 101812